sat.trackr.live / text

‹ back to catalog

STARLINK-36593

NORAD 67564 · 2026-016D

PAYLOAD ACTIVE UNKNOWN

§ Identity

Operator
Country
US
Launch date
2026-01-25
Launch site
AFWTR
Launch vehicle
Mass (kg)
RCS (m²)

Purposes: comms

External: N2YO · Heavens-Above · Gunter

§ Orbital elements

Epoch: 2026-09-19T09:54:33.981120Z

Period
93.91 min
Inclination
97.2871°
Eccentricity
0.0001157
Mean motion
15.33451371 rev/d
Perigee alt
464.7 km
Apogee alt
466.3 km
Semi-major
6,843.7 km
B*
6.3727e-4
RAAN
321.0851°
Arg perigee
99.1299°
Mean anomaly
261.0074°
Rev number
3,655

§ Raw data

STARLINK-365931 67564U 26016D   26262.41289330  .00020558  00000+0  63727-3 0  99982 67564  97.2871 321.0851 0001157  99.1299 261.0074 15.33451371 36559

JSON: /api/v1/satellites/67564 · /tle

For live sub-satellite position, see the globe view (requires WebGL).

§ Visibility from observer

Set your observer location to see the next 7 days of passes ≥ 10°. The values pass through the URL so the page stays shareable.

No JS? Fill the form by hand. The geolocation button needs JavaScript.